Location: Newark
(41.6478°N, 9.0078°E)
Time: 21:51:18
(UTC+00:00)

LightSail 2 - Visible Passes

Search period start: 11 November 2019 00:00
Search period end: 21 November 2019 00:00
Orbit: 702 x 726 km, 24.0° (Epoch: 10 November)

Date Brightness Start Highest point End Pass type
(mag) Time Alt. Az. Time Alt. Az. Time Alt. Az.
11 Nov 7.7 05:16:51 10° S 05:17:50 10° S 05:18:49 10° SSE visible
12 Nov 7.7 04:19:51 10° S 04:20:15 10° S 04:20:38 10° S visible
13 Nov 7.7 05:06:47 10° S 05:07:12 10° S 05:07:37 10° S visible
14 Nov 7.6 04:08:40 10° S 04:09:36 10° S 04:10:30 10° S visible
